Вернуться в каталог

COSMOS 1324

АктивенНавигацияLEO
NORAD 12979·PAYLOAD·🇷🇺 Russia

Запущен Nov 28, 1981 с Plesetsk Cosmodrome

Loading…

Ближайшие Пролёты (ближайшие 24 часа)

TLE

СвежийSource: Space-Track

Эпоха: Sep 14, 2026, 08:20 UTC

1 12979U 81116E   26257.34763759 -.00000023  00000-0 -69625-4 0  9990
2 12979  73.9789 239.2143 0086713  74.1112  88.2464 12.29741115 10891

Отслеживайте COSMOS 1324 в реальном времени с AllMySat

Download on the App Store